This is the latest recevied weather packets stored in our database for station/object KJ4AJP. If no packets are shown the sender has not sent any weather packets the latest 10 day(s).
| Time | Temp. | Humidity | Pressure | Rain* | Wind** | Luminosity | Snow |
|---|---|---|---|---|---|---|---|
| 1777658450 | 20° C | 32% | 1017.3 hPa | 0 mm | - | 800 W/m² | - |
| 1777657844 | 19.44° C | 34% | 1017.4 hPa | 0 mm | - | 806 W/m² | - |
| 1777657239 | 18.89° C | 40% | 1017.6 hPa | 0 mm | - | 781 W/m² | - |
| 1777656936 | 19.44° C | 38% | 1017.4 hPa | 0 mm | - | 786 W/m² | - |
| 1777656024 | 18.89° C | 35% | 1017.5 hPa | 0 mm | - | 695 W/m² | - |
| 1777655417 | 18.33° C | 38% | 1017.6 hPa | 0 mm | - | 702 W/m² | - |
| 1777655114 | 18.89° C | 32% | 1017.6 hPa | 0 mm | - | 791 W/m² | - |
| 1777654811 | 19.44° C | 40% | 1017.7 hPa | 0 mm | - | 782 W/m² | - |
| 1777653904 | 18.89° C | 39% | 1017.8 hPa | 0 mm | - | 730 W/m² | - |
| 1777653600 | 18.89° C | 41% | 1017.8 hPa | 0 mm | - | 736 W/m² | - |
| 1777652689 | 18.89° C | 34% | 1018 hPa | 0 mm | - | 638 W/m² | - |
| 1777652083 | 18.33° C | 40% | 1018.2 hPa | 0 mm | - | 699 W/m² | - |
| 1777651477 | 17.78° C | 41% | 1018 hPa | 0 mm | - | 675 W/m² | - |
| 1777651174 | 17.78° C | 38% | 1018.1 hPa | 0 mm | - | 531 W/m² | - |
| 1777650265 | 17.78° C | 42% | 1018 hPa | 0 mm | - | 649 W/m² | - |
| 1777649962 | 17.78° C | 43% | 1018.2 hPa | 0 mm | - | 613 W/m² | - |
| 1777649660 | 17.78° C | 44% | 1018.5 hPa | 0 mm | - | 643 W/m² | - |
| 1777649355 | 17.78° C | 41% | 1017.9 hPa | 0 mm | - | 611 W/m² | - |
| 1777649053 | 17.78° C | 45% | 1018 hPa | 0 mm | - | 587 W/m² | - |
| 1777648750 | 17.22° C | 44% | 1017.9 hPa | 0 mm | - | 565 W/m² | - |
| 1777648446 | 17.22° C | 44% | 1017.8 hPa | 0 mm | - | 582 W/m² | - |
| 1777648143 | 17.22° C | 45% | 1017.9 hPa | 0 mm | - | 566 W/m² | - |
| 1777647838 | 17.22° C | 45% | 1017.9 hPa | 0 mm | - | 552 W/m² | - |
| 1777646321 | 16.11° C | 56% | 1017.6 hPa | 0 mm | - | 420 W/m² | - |
| 1777646018 | 15.56° C | 56% | 1017.5 hPa | 0 mm | - | 396 W/m² | - |
* Rain latest hour (hover to see other rain measurements)
** Current wind speed in m/s (hover to see current wind gust speed)